Location: Stendal
(52.5994°N, 11.8400°E)
Time: 17:06:06
(UTC+01:00)

Envisat - Pass Details

Date: 11 October 2022
Orbit: 763 x 765 km, 98.2° (Epoch: 30 November)

Event Time Altitude Azimuth Distance (km) Brightness Sun altitude
Rises 05:56:54 0° 14° (NNE) 3,247 6.5 -15.0°
Reaches altitude 10° 05:59:13 10° 13° (NNE) 2,316 5.8 -14.7°
Maximum altitude 06:04:19 80° 287° (WNW) 785 2.9 -13.9°
Drops below altitude 10° 06:09:23 10° 202° (SSW) 2,298 5.2 -13.2°
Sets 06:11:41 0° 201° (SSW) 3,220 6.0 -12.8°
